EN

Hourly Weather Buzaevo

Today, 16 April, Friday

Time Temperature Precipitation Wind Pressure Humidity
00:00 +13°C° 0 mm 3 mps 758 mmHg 66%
01:00 +12°C° 0 mm 3 mps 759 mmHg 75%
02:00 +11°C° 0 mm 4 mps 759 mmHg 84%
03:00 +10°C° 0 mm 4 mps 760 mmHg 93%
04:00 +9°C° 0 mm 5 mps 760 mmHg 93%
05:00 +9°C° 0 mm 5 mps 760 mmHg 92%
06:00 +9°C° 0 mm 6 mps 761 mmHg 92%
07:00 +9°C° 0 mm 6 mps 761 mmHg 88%
08:00 +9°C° 0 mm 6 mps 761 mmHg 84%
09:00 +10°C° 0 mm 7 mps 761 mmHg 80%
10:00 +11°C° 0 mm 7 mps 762 mmHg 75%
11:00 +11°C° 0 mm 6 mps 762 mmHg 69%
12:00 +13°C° 0 mm 6 mps 762 mmHg 64%
13:00 +14°C° 0 mm 6 mps 762 mmHg 63%
14:00 +14°C° 0 mm 6 mps 762 mmHg 61%
15:00 +14°C° 0 mm 6 mps 762 mmHg 60%
16:00 +13°C° 0 mm 6 mps 762 mmHg 61%
17:00 +13°C° 0 mm 5 mps 762 mmHg 63%
18:00 +12°C° 0 mm 5 mps 763 mmHg 65%
19:00 +10°C° 0 mm 5 mps 763 mmHg 66%
20:00 +10°C° 0 mm 4 mps 763 mmHg 67%
21:00 +7°C° 0 mm 4 mps 763 mmHg 68%
22:00 +7°C° 0 mm 4 mps 763 mmHg 68%
23:00 +6°C° 0 mm 4 mps 763 mmHg 68%

Tomorrow, 17 April, Saturday

Time Temperature Precipitation Wind Pressure Humidity
00:00 +5°C° 0 mm 4 mps 764 mmHg 68%
01:00 +5°C° 0 mm 4 mps 764 mmHg 69%
02:00 +4°C° 0 mm 4 mps 764 mmHg 70%
03:00 +4°C° 0 mm 4 mps 764 mmHg 71%
04:00 +3°C° 0 mm 4 mps 764 mmHg 71%
05:00 +3°C° 0 mm 4 mps 764 mmHg 70%
06:00 +3°C° 0 mm 4 mps 765 mmHg 70%
07:00 +5°C° 0 mm 4 mps 765 mmHg 64%
08:00 +6°C° 0 mm 5 mps 765 mmHg 58%
09:00 +8°C° 0 mm 6 mps 765 mmHg 53%
10:00 +9°C° 0 mm 6 mps 765 mmHg 49%
11:00 +10°C° 0 mm 6 mps 764 mmHg 45%
12:00 +11°C° 0 mm 6 mps 764 mmHg 41%
13:00 +13°C° 0 mm 6 mps 764 mmHg 38%
14:00 +13°C° 0 mm 5 mps 764 mmHg 35%
15:00 +13°C° 0 mm 5 mps 764 mmHg 33%
16:00 +12°C° 0 mm 5 mps 764 mmHg 37%
17:00 +11°C° 0 mm 4 mps 764 mmHg 41%
18:00 +11°C° 0 mm 3 mps 764 mmHg 45%
19:00 +9°C° 0 mm 3 mps 764 mmHg 50%
20:00 +8°C° 0 mm 3 mps 764 mmHg 55%
21:00 +7°C° 0 mm 3 mps 764 mmHg 60%
22:00 +5°C° 0 mm 3 mps 764 mmHg 62%
23:00 +5°C° 0 mm 3 mps 763 mmHg 65%

Day after tomorrow, 18 April, Sunday

Time Temperature Precipitation Wind Pressure Humidity
00:00 +4°C° 0 mm 3 mps 763 mmHg 67%
01:00 +3°C° 0 mm 3 mps 764 mmHg 69%
02:00 +3°C° 0 mm 3 mps 764 mmHg 71%
03:00 +3°C° 0 mm 2 mps 764 mmHg 73%
04:00 +3°C° 0 mm 3 mps 764 mmHg 73%
05:00 +3°C° 0 mm 3 mps 764 mmHg 73%
06:00 +3°C° 0 mm 3 mps 763 mmHg 73%
07:00 +5°C° 0 mm 4 mps 763 mmHg 66%
08:00 +7°C° 0 mm 4 mps 763 mmHg 59%
09:00 +8°C° 0 mm 5 mps 763 mmHg 51%
10:00 +9°C° 0 mm 5 mps 763 mmHg 48%
11:00 +10°C° 0 mm 5 mps 763 mmHg 44%
12:00 +12°C° 0 mm 5 mps 763 mmHg 40%
13:00 +13°C° 0 mm 5 mps 763 mmHg 40%
14:00 +13°C° 0 mm 6 mps 763 mmHg 40%
15:00 +13°C° 0 mm 6 mps 763 mmHg 40%
16:00 +13°C° 0 mm 5 mps 763 mmHg 44%
17:00 +12°C° 0 mm 5 mps 763 mmHg 48%
18:00 +11°C° 0 mm 4 mps 763 mmHg 52%
19:00 +9°C° 0 mm 5 mps 763 mmHg 58%
20:00 +7°C° 0 mm 6 mps 764 mmHg 65%
21:00 +5°C° 0 mm 7 mps 764 mmHg 71%
22:00 +4°C° 0 mm 6 mps 764 mmHg 69%
23:00 +3°C° 0 mm 6 mps 765 mmHg 66%

19 April, Monday

Time Temperature Precipitation Wind Pressure Humidity
00:00 +3°C° 0 mm 6 mps 765 mmHg 63%
01:00 +2°C° 0 mm 5 mps 765 mmHg 61%
02:00 +1°C° 0 mm 5 mps 765 mmHg 59%
03:00 +1°C° 0 mm 5 mps 766 mmHg 57%
04:00 +1°C° 0 mm 5 mps 766 mmHg 61%
05:00 +1°C° 0 mm 5 mps 766 mmHg 65%
06:00 0°C° 0 mm 5 mps 766 mmHg 68%
07:00 +1°C° 0 mm 6 mps 766 mmHg 62%
08:00 +2°C° 0 mm 7 mps 767 mmHg 55%
09:00 +4°C° 0 mm 8 mps 767 mmHg 49%
10:00 +4°C° 0 mm 8 mps 767 mmHg 45%
11:00 +5°C° 0 mm 8 mps 767 mmHg 42%
12:00 +6°C° 0 mm 8 mps 767 mmHg 39%
13:00 +6°C° 0 mm 8 mps 767 mmHg 40%
14:00 +6°C° 0 mm 8 mps 767 mmHg 40%
15:00 +6°C° 0 mm 8 mps 767 mmHg 40%
16:00 +6°C° 0 mm 7 mps 767 mmHg 42%
17:00 +5°C° 0 mm 7 mps 767 mmHg 44%
18:00 +5°C° 0 mm 6 mps 767 mmHg 46%
19:00 +4°C° 0 mm 6 mps 767 mmHg 47%
20:00 +3°C° 0 mm 6 mps 767 mmHg 48%
21:00 +2°C° 0 mm 6 mps 768 mmHg 48%
22:00 +2°C° 0 mm 6 mps 768 mmHg 50%
23:00 +1°C° 0 mm 6 mps 767 mmHg 51%

20 April, Tuesday

Time Temperature Precipitation Wind Pressure Humidity
00:00 +1°C° 0 mm 6 mps 767 mmHg 52%
01:00 -1°C° 0 mm 6 mps 768 mmHg 54%
02:00 -1°C° 0 mm 6 mps 768 mmHg 56%
03:00 -2°C° 0 mm 6 mps 768 mmHg 59%
04:00 -1°C° 0 mm 6 mps 768 mmHg 60%
05:00 -1°C° 0 mm 6 mps 768 mmHg 62%
06:00 -1°C° 0 mm 6 mps 768 mmHg 64%
07:00 0°C° 0 mm 7 mps 768 mmHg 58%
08:00 +3°C° 0 mm 7 mps 768 mmHg 52%
09:00 +4°C° 0 mm 8 mps 768 mmHg 47%
10:00 +5°C° 0 mm 8 mps 767 mmHg 44%
11:00 +6°C° 0 mm 8 mps 767 mmHg 41%
12:00 +7°C° 0 mm 9 mps 767 mmHg 38%
13:00 +8°C° 0 mm 9 mps 767 mmHg 35%
14:00 +8°C° 0 mm 9 mps 766 mmHg 33%
15:00 +10°C° 0 mm 9 mps 766 mmHg 30%
16:00 +9°C° 0 mm 8 mps 766 mmHg 32%
17:00 +7°C° 0 mm 8 mps 766 mmHg 34%
18:00 +8°C° 0 mm 7 mps 766 mmHg 36%
19:00 +6°C° 0 mm 7 mps 766 mmHg 38%
20:00 +5°C° 0 mm 7 mps 766 mmHg 40%
21:00 +4°C° 0 mm 7 mps 766 mmHg 42%
22:00 +4°C° 0 mm 7 mps 765 mmHg 43%
23:00 +4°C° 0 mm 7 mps 765 mmHg 45%

21 April, Wednesday

Time Temperature Precipitation Wind Pressure Humidity
00:00 +3°C° 0 mm 7 mps 765 mmHg 46%
01:00 +2°C° 0 mm 8 mps 765 mmHg 47%
02:00 +2°C° 0 mm 8 mps 765 mmHg 48%
03:00 +1°C° 0 mm 8 mps 764 mmHg 49%
04:00 +1°C° 0 mm 8 mps 764 mmHg 50%
05:00 +1°C° 0 mm 8 mps 764 mmHg 51%
06:00 +1°C° 0 mm 8 mps 764 mmHg 52%
07:00 +1°C° 0 mm 8 mps 764 mmHg 52%
08:00 +2°C° 0 mm 8 mps 764 mmHg 52%
09:00 +4°C° 0 mm 8 mps 764 mmHg 51%
10:00 +4°C° 0.2 mm 8 mps 764 mmHg 54%
11:00 +4°C° 0.2 mm 8 mps 765 mmHg 57%
12:00 +4°C° 0.2 mm 8 mps 765 mmHg 60%
13:00 +2°C° 0.3 mm 8 mps 765 mmHg 66%
14:00 +3°C° 0.3 mm 7 mps 765 mmHg 73%
15:00 +2°C° 0.3 mm 7 mps 765 mmHg 79%
16:00 +2°C° 0.2 mm 7 mps 765 mmHg 83%
17:00 +2°C° 0.2 mm 7 mps 765 mmHg 88%
18:00 0°C° 0.2 mm 7 mps 765 mmHg 92%
19:00 0°C° 0 mm 7 mps 765 mmHg 93%
20:00 0°C° 0 mm 7 mps 765 mmHg 94%
21:00 0°C° 0 mm 7 mps 765 mmHg 96%
22:00 0°C° 0 mm 7 mps 765 mmHg 96%
23:00 +1°C° 0 mm 6 mps 765 mmHg 96%
Show more

We Need Your Consent

Meteoprog and our Service Providers may store and access personal data such as cookies, device identifiers or other similar technologies on your device and process such data to personalise content and ads, as well as provide social media features and to analyse the traffic.

  • Store and/or access information on your device

    Cookies, device identifiers or other information can be stored or accessed on your device for the purposes indicated above.

  • Personalised ads and content, ad and content measurement, audience insights, and products development

    Ads and content can be personalised based on a profile. More data can be added to better personalise ads and content. Ad and content performance can be measured. Insights about the audience who saw the ads and content can be derived. Such data can be used to develop or improve user’s experience, systems and software.

By clicking ‘I Agree’ you will allow the use of indicated cookies, device identifiers, web beacons or other similar technologies. Your settings can be changed in the browser on your device.

For certain purposes, legitimate interests may be relied on, rather than consent. You can read more about this in our Privacy and Cookie Policy.